Weather in Novobohdanivka

Ukraine / Zaporizhia Region     47°04′46″N   35°19′36″E
temp.,
°C
wind,
m/s
gust,
m/s
humid.,
%
clouds,
%
prec.,
mm/h
press.,
hPa
HPBL,
m
2 march, tue
tue223:000n338342 0.0 102972
02:000nnw338321 0.0 103082
05:00−1nw23880 0.0 102969
08:00+1wnw45770 0.0 1030263
11:00+4w67580 0.0 1028978
14:00+5w796033 0.0 1025948
17:00+4wsw61267100 0.0 1022691
20:00+2wsw7157872 0.0 1022492
3 march, wed
wed323:00+3w6128399 0.0 1020607
02:00+1wnw7138999 0.1 1020596
05:00+2nnw7128094 0.0 1021884
08:00+2nnw7107877 0.1 1024781
11:00+5nnw68616 0.0 10251083
14:00+7nnw79493 0.0 10251430
17:00+5nnw47520 0.0 1025334
20:00+2nw34650 0.0 102762
4 march, thu
thu423:00+1w23710 0.0 102622
02:00+1wsw33770 0.0 102647
05:000wsw35800 0.0 1024105
08:00+3sw58670 0.0 1023360
11:00+8sw710570 0.0 10211111
14:00+9sw810550 0.0 10191283
17:00+7sw6116660 0.0 1016720
20:00+5sw7157749 0.0 1016585
5 march, fri
fri523:00+3sw7148233 0.0 1015546
02:00+3sw6148718 0.0 1015515
05:00+2sw513910 0.0 1014392
08:00+5sw6118739 0.0 1014453
11:00+9sw697298 0.0 1014626
14:00+12sw795996 0.0 10121122
17:00+10ssw5106698 0.0 1011368
20:00+7ssw4108151 0.0 1012290
6 march, sat
sat623:00+5sw4109315 0.0 1011354
02:00+4wsw359748 0.0 1012143
05:00+3nw379793 0.0 1013203
08:00+4n589396 0.1 1014343
11:00+2n71094100 0.9 1015554
14:00+4n7953100 1.3 10161109
17:00+3nnw7951100 0.0 10181218
20:000nnw71151100 0.0 1021841